Cape Cod CGAS, MA

1:29 PM EDT on September 19, 2017 (GMT -0400)
Cape Cod Coast Guard Air Station

Weather History for KFMH - March, 2013

Change the Weather History Date:

Monday, March 4, 2013

  Actual Average Record
Temperature  
Mean Temperature 34 °F -  
Max Temperature 41 °F 40 °F 51 °F (2008)
Min Temperature 28 °F 23 °F 6 °F (2003)
Degree Days  
Heating Degree Days 30    
Moisture  
Dew Point 23 °F    
Average Humidity 63    
Maximum Humidity 87    
Minimum Humidity 40    
Precipitation  
Precipitation 0.00 in - - ()
Sea Level Pressure  
Sea Level Pressure 29.61 in    
Wind  
Wind Speed 13 mph (NW)    
Max Wind Speed 21 mph    
Max Gust Speed 28 mph    
Visibility 10 miles    
Events Snow    
Averages and records for this station are not official NWS values.
T = Trace of Precipitation, MM = Missing Value Source: NWS Daily Summary

Daily Weather History Graph

Daily Weather History Graph

Search for Another Location

Airport or City:

Trip Planner

Search our weather history database for the weather conditions in past years. The results will help you decide how hot, cold, wet, or windy it might be!

Date:

Astronomy

Mar. 04, 2013 Rise Set
Actual Time 6:11 AM EST 5:36 PM EST
Civil Twilight 5:43 AM EST 6:04 PM EST
Nautical Twilight 5:11 AM EST 6:36 PM EST
Astronomical Twilight 4:39 AM EST 7:08 PM EST
Moon 12:21 AM EST (3/4) 10:11 AM EST (3/4)
Length of Visible Light 12h 20m
Length of Day
11h 24m
Waning Gibbous, 52% of the Moon is Illuminated
Mar 4
Waning Gibbous
Mar 4
Last Quarter
Mar 11
New
Mar 19
First Quarter
Mar 27
Full

Hourly Weather History & Observations

Time (EST) Temp. Windchill Dew Point Humidity Pressure Visibility Wind Dir Wind Speed Gust Speed Precip Events Conditions
12:15 AM 32.0 °F 24.8 °F 28.4 °F 87% 29.59 in 10.0 mi WNW 8.1 mph - N/A   Overcast
12:35 AM 32.0 °F 23.6 °F 28.4 °F 87% 29.59 in 4.0 mi WNW 10.4 mph - 0.02 in Snow Light Snow
12:55 AM 32.0 °F 23.6 °F 28.4 °F 87% 29.59 in 4.0 mi WNW 10.4 mph - 0.03 in Snow Light Snow
1:15 AM 32.0 °F 23.0 °F 28.4 °F 87% 29.59 in 5.0 mi WNW 11.5 mph - N/A Snow Light Snow
1:35 AM 32.0 °F 23.6 °F 28.4 °F 87% 29.59 in 10.0 mi WNW 10.4 mph - N/A Snow Light Snow
1:55 AM 32.0 °F 23.6 °F 28.4 °F 87% 29.59 in 10.0 mi WNW 10.4 mph - N/A   Overcast
2:15 AM 32.0 °F 24.2 °F 28.4 °F 87% 29.59 in 10.0 mi WNW 9.2 mph - N/A   Overcast
2:35 AM 32.0 °F 24.2 °F 26.6 °F 80% 29.59 in 10.0 mi WNW 9.2 mph - N/A   Overcast
2:55 AM 32.0 °F 23.6 °F 26.6 °F 80% 29.59 in 10.0 mi WNW 10.4 mph - N/A   Overcast
3:15 AM 32.0 °F 23.6 °F 26.6 °F 80% 29.59 in 10.0 mi WNW 10.4 mph - N/A   Overcast
3:35 AM 32.0 °F 24.2 °F 24.8 °F 75% 29.59 in 10.0 mi WNW 9.2 mph 17.3 mph N/A   Mostly Cloudy
3:55 AM 32.0 °F 24.8 °F 24.8 °F 75% 29.60 in 10.0 mi WNW 8.1 mph - N/A   Overcast
4:15 AM 32.0 °F 24.2 °F 24.8 °F 75% 29.60 in 10.0 mi WNW 9.2 mph - N/A   Overcast
4:35 AM 32.0 °F 23.6 °F 24.8 °F 75% 29.60 in 10.0 mi WNW 10.4 mph - N/A   Overcast
4:55 AM 32.0 °F 23.6 °F 24.8 °F 75% 29.60 in 10.0 mi WNW 10.4 mph - N/A   Overcast
5:15 AM 32.0 °F 23.0 °F 24.8 °F 75% 29.61 in 10.0 mi WNW 11.5 mph 16.1 mph N/A   Overcast
5:35 AM 32.0 °F 23.0 °F 23.0 °F 69% 29.61 in 10.0 mi WNW 11.5 mph 17.3 mph N/A   Overcast
5:55 AM 30.2 °F 19.8 °F 23.0 °F 75% 29.61 in 10.0 mi WNW 13.8 mph - N/A   Overcast
6:15 AM 28.4 °F 18.0 °F 23.0 °F 80% 29.61 in 10.0 mi WNW 12.7 mph 18.4 mph N/A   Mostly Cloudy
6:35 AM 28.4 °F 17.5 °F 23.0 °F 80% 29.61 in 10.0 mi WNW 13.8 mph 18.4 mph N/A   Partly Cloudy
6:55 AM 28.4 °F 18.0 °F 23.0 °F 80% 29.62 in 10.0 mi WNW 12.7 mph 21.9 mph N/A   Clear
7:15 AM 30.2 °F 20.2 °F 23.0 °F 75% 29.62 in 10.0 mi WNW 12.7 mph 20.7 mph N/A   Clear
7:35 AM 32.0 °F 20.1 °F 21.2 °F 64% 29.62 in 10.0 mi WNW 19.6 mph 25.3 mph N/A   Clear
7:55 AM 32.0 °F 20.5 °F 21.2 °F 64% 29.62 in 10.0 mi WNW 18.4 mph 26.5 mph N/A   Partly Cloudy
8:15 AM 32.0 °F 19.8 °F 21.2 °F 64% 29.62 in 10.0 mi WNW 20.7 mph 27.6 mph N/A   Scattered Clouds
8:35 AM 32.0 °F 20.1 °F 21.2 °F 64% 29.61 in 10.0 mi WNW 19.6 mph 25.3 mph N/A   Scattered Clouds
8:55 AM 32.0 °F 19.8 °F 19.4 °F 60% 29.61 in 10.0 mi NW 20.7 mph 27.6 mph N/A   Clear
9:15 AM 33.8 °F 23.5 °F 19.4 °F 56% 29.61 in 10.0 mi WNW 16.1 mph 25.3 mph N/A   Clear
9:35 AM 35.6 °F 26.6 °F 21.2 °F 56% 29.61 in 10.0 mi WNW 13.8 mph 23.0 mph N/A   Clear
9:55 AM 35.6 °F 26.2 °F 21.2 °F 56% 29.60 in 10.0 mi NW 15.0 mph 21.9 mph N/A   Clear
10:15 AM 37.4 °F 27.5 °F 21.2 °F 52% 29.60 in 10.0 mi WNW 18.4 mph 23.0 mph N/A   Clear
10:35 AM 37.4 °F 27.8 °F 21.2 °F 52% 29.60 in 10.0 mi WNW 17.3 mph 23.0 mph N/A   Clear
10:55 AM 37.4 °F 28.2 °F 21.2 °F 52% 29.59 in 10.0 mi WNW 16.1 mph 23.0 mph N/A   Clear
11:15 AM 39.2 °F 30.5 °F 21.2 °F 49% 29.59 in 10.0 mi NW 16.1 mph 20.7 mph N/A   Clear
11:35 AM 39.2 °F 30.2 °F 21.2 °F 49% 29.58 in 10.0 mi WNW 17.3 mph 23.0 mph N/A   Partly Cloudy
11:55 AM 41.0 °F 31.6 °F 21.2 °F 45% 29.58 in 10.0 mi NW 20.7 mph 27.6 mph N/A   Mostly Cloudy
12:15 PM 39.2 °F 30.2 °F 19.4 °F 45% 29.58 in 10.0 mi West 17.3 mph 24.2 mph N/A   Unknown
12:35 PM 39.2 °F 29.8 °F 21.2 °F 49% 29.57 in 10.0 mi WNW 18.4 mph 24.2 mph N/A   Overcast
12:55 PM 41.0 °F 32.2 °F 21.2 °F 45% 29.56 in 10.0 mi WNW 18.4 mph 25.3 mph N/A   Overcast
1:15 PM 39.2 °F 30.5 °F 21.2 °F 49% 29.56 in 10.0 mi WNW 16.1 mph 21.9 mph N/A   Overcast
1:35 PM 39.2 °F 30.8 °F 19.4 °F 45% 29.56 in 10.0 mi WNW 15.0 mph 24.2 mph N/A   Mostly Cloudy
1:55 PM 39.2 °F 30.5 °F 21.2 °F 49% 29.56 in 10.0 mi WNW 16.1 mph - N/A   Overcast
2:15 PM 39.2 °F 29.6 °F 21.2 °F 49% 29.57 in 10.0 mi WNW 19.6 mph 25.3 mph N/A   Overcast
2:35 PM 39.2 °F 30.8 °F 19.4 °F 45% 29.57 in 10.0 mi NW 15.0 mph 25.3 mph N/A   Scattered Clouds
2:55 PM 39.2 °F 30.5 °F 21.2 °F 49% 29.57 in 10.0 mi WNW 16.1 mph 24.2 mph N/A   Clear
3:15 PM 39.2 °F 30.5 °F 21.2 °F 49% 29.57 in 10.0 mi NW 16.1 mph 26.5 mph N/A   Mostly Cloudy
3:35 PM 39.2 °F 31.2 °F 21.2 °F 49% 29.58 in 10.0 mi NNW 13.8 mph 24.2 mph N/A   Overcast
3:55 PM 37.4 °F 30.3 °F 23.0 °F 56% 29.58 in 10.0 mi NW 10.4 mph 19.6 mph N/A   Overcast
4:15 PM 37.4 °F 29.3 °F 21.2 °F 52% 29.58 in 10.0 mi WNW 12.7 mph - N/A   Overcast
4:35 PM 37.4 °F 28.9 °F 23.0 °F 56% 29.59 in 10.0 mi NW 13.8 mph 20.7 mph N/A   Overcast
4:55 PM 37.4 °F 29.3 °F 23.0 °F 56% 29.59 in 10.0 mi WNW 12.7 mph - N/A   Overcast
5:15 PM 37.4 °F 30.8 °F 23.0 °F 56% 29.60 in 10.0 mi WNW 9.2 mph 18.4 mph N/A   Overcast
5:35 PM 37.4 °F 30.3 °F 23.0 °F 56% 29.60 in 10.0 mi NW 10.4 mph - N/A   Overcast
5:55 PM 37.4 °F 27.8 °F 23.0 °F 56% 29.61 in 10.0 mi NW 17.3 mph 21.9 mph N/A   Overcast
6:15 PM 37.4 °F 28.9 °F 23.0 °F 56% 29.62 in 10.0 mi NNW 13.8 mph 20.7 mph N/A   Overcast
6:35 PM 37.4 °F 30.8 °F 23.0 °F 56% 29.63 in 10.0 mi NW 9.2 mph 18.4 mph N/A   Overcast
6:55 PM 37.4 °F 30.3 °F 23.0 °F 56% 29.63 in 10.0 mi NW 10.4 mph 20.7 mph N/A   Overcast
7:15 PM 37.4 °F 28.2 °F 23.0 °F 56% 29.64 in 10.0 mi NW 16.1 mph 25.3 mph N/A   Overcast
7:35 PM 35.6 °F 28.0 °F 24.8 °F 65% 29.65 in 10.0 mi NNW 10.4 mph 19.6 mph N/A   Overcast
7:55 PM 35.6 °F 25.5 °F 24.8 °F 65% 29.66 in 10.0 mi NNW 17.3 mph 26.5 mph N/A   Overcast
8:15 PM 33.8 °F 23.5 °F 24.8 °F 70% 29.67 in 10.0 mi NW 16.1 mph 24.2 mph N/A   Overcast
8:35 PM 33.8 °F 25.8 °F 24.8 °F 70% 29.67 in 10.0 mi NW 10.4 mph 17.3 mph N/A   Overcast
8:55 PM 33.8 °F 23.2 °F 24.8 °F 70% 29.67 in 10.0 mi NW 17.3 mph 25.3 mph N/A   Overcast
9:15 PM 33.8 °F 24.8 °F 23.0 °F 65% 29.67 in 10.0 mi NW 12.7 mph 21.9 mph N/A   Overcast
9:35 PM 33.8 °F 25.8 °F 23.0 °F 65% 29.67 in 10.0 mi NW 10.4 mph 21.9 mph N/A   Overcast
9:55 PM 33.8 °F 24.8 °F 24.8 °F 70% 29.68 in 10.0 mi NNW 12.7 mph 23.0 mph N/A   Overcast
10:15 PM 33.8 °F 25.8 °F 23.0 °F 65% 29.68 in 10.0 mi NW 10.4 mph 23.0 mph N/A   Overcast
10:35 PM 33.8 °F 25.3 °F 23.0 °F 65% 29.69 in 10.0 mi NW 11.5 mph 18.4 mph N/A   Overcast
10:55 PM 33.8 °F 24.3 °F 23.0 °F 65% 29.69 in 10.0 mi NW 13.8 mph 18.4 mph N/A   Overcast
11:15 PM 33.8 °F 25.8 °F 23.0 °F 65% 29.69 in 10.0 mi NW 10.4 mph 20.7 mph N/A   Overcast
11:35 PM 33.8 °F 24.3 °F 23.0 °F 65% 29.69 in 10.0 mi NW 13.8 mph - N/A   Overcast
11:55 PM 33.8 °F 24.8 °F 23.0 °F 65% 29.70 in 10.0 mi NW 12.7 mph 20.7 mph N/A   Overcast